Hourly Data Report for May 20, 2012

All times are specified in Local Standard Time (LST). Add 1 hour to adjust for Daylight Saving Time where and when it is observed.

LONDON A
ONTARIO

43°01'59.000" N
81°09'04.000" W
278.00 m
6144473
71623
YXU

Download Data

Hourly Data (May 2012)
Hourly Data Report for May 20, 2012
Temp Definition
°C
Dew Point Temp Definition
°C
Rel Hum Definition
%
Wind Dir Definition
10's deg

Wind Spd Definition
km/h
Visibility Definition
km
Stn Press Definition
kPa
Hmdx Definition


Wind Chill Definition


Weather Definition


TIME
00:00 12.8 7.3 69   0 10.0 98.84     LegendNANA
01:00 13.5 8.0 69 8 5 10.0 98.82     Clear
02:00 11.8 8.1 78   0 10.0 98.80     LegendNANA
03:00 12.1 8.2 77 9 5 10.0 98.80     LegendNANA
04:00 9.8 7.6 86   0 10.0 98.86     Mainly Clear
05:00 11.7 7.6 76 5 5 10.0 98.91     LegendNANA
06:00 12.2 8.3 77   0 10.0 98.97     LegendNANA
07:00 17.6 11.0 65   0 10.0 98.99     Mostly Cloudy
08:00 21.1 10.7 51 9 7 10.0 98.99     LegendNANA
09:00 24.9 12.0 44 13 6 10.0 98.97 27   LegendNANA
10:00 27.1 11.8 38 13 8 10.0 98.96 29   Mostly Cloudy
11:00 28.1 11.0 34 12 6 10.0 98.93 30   LegendNANA
12:00 29.1 9.6 29 17 18 10.0 98.90 30   LegendNANA
13:00 29.5 10.4 30 15 21 10.0 98.82 31   Cloudy
14:00 29.5 9.9 29 14 18 10.0 98.76 31   LegendNANA
15:00 29.7 9.6 28 16 18 10.0 98.70 31   LegendNANA
16:00 29.0 9.0 28 18 20 10.0 98.66 30   Mostly Cloudy
17:00 27.9 9.5 31 18 19 10.0 98.65 29   LegendNANA
18:00
19:00 24.8 8.9 36 18 7 10.0 98.56 26   Mostly Cloudy
20:00 22.9 8.8 40 18 5 10.0 98.55     LegendNANA
21:00 19.9 9.0 49   0 10.0 98.59     LegendNANA
22:00 19.0 9.6 54 8 9 10.0 98.55     Mostly Cloudy
23:00 17.5 9.7 60 9 11 10.0 98.52     LegendNANA

Notes on Data Quality.

Legend

  • E = Estimated
  • M = Missing
  • NA = Not Available
Date modified: